星链-3996 (STARLINK-3996 )

导读

STARLINK-3996是美国太空探索技术公司星链星座的一员,于2022年5月14日发射入轨。星链星座计划构建全球卫星互联网,为偏远地区、海上等场景提供宽带网络服务,这颗卫星补充了星链低轨星座的组网规模,延续了星链系统的部署进程。

Basic Information
目录编号:
52617
目录名称:
STARLINK-3996
国际标识:
2022-052V
轨道中心:
EARTH
卫星名称:
星链-3996
卫星全名:
星链-3996 (STARLINK-3996 )
卫星状态:
在轨 (已飞行1582 天)
发射日期:
2022-05-14 UTC
国别 :
美国 (US)
星等 :
--
This satellite is enrolled in the Space Conjunction Data Service (SCDS) and the current flight risk assessment level is: No High Risk
Orbit Information
数据来源 国际轨道数据 AOE轨道数据
星历时间 2026-09-12T08:17:28+0800
8小时前
查看轨道信息
2026-09-10T00:00:00+0800
2天前
查看轨道信息
半长轴 6917.907km 6917.903km
偏心率 0.0001434 0.0001427
轨道倾角 53.160° 53.158°
近地点辐角 90.176° 87.469°
升交点赤经 152.077° 162.621°
平近点角 269.939° 125.619°
近地点 538.777km 538.778km
远地点 540.763km 540.754km
周期 95.438分钟 95.438分钟
每日圈数 15.088316 15.088328
Detailed Information
固有亮度:
5
最大亮度:
2.5
卫星平台:
Starlink v1.5
覆盖范围:
全球
运营商:
太空探索技术公司
运营商所在国:
美国
制造商(研发单位):
太空探索技术公司
制造商所在国:
美国
使用方式:
暂无
Satellite Introduction
星链(Starlink)计划是由太空探索技术公司(SpaceX)提出的一个巨型低轨卫星互联网星座项目,计划在2019年至2024年间在太空搭建由约1.2万颗卫星组成的“星链”网络,其中1584颗将部署在地球上空550千米处的近地轨道,并从2020年开始工作。该卫星仍在工作。
2D Orbit Map
3D Orbit Map
Orbit Altitude Analysis Chart
Orbit Inclination Analysis Chart
Orbit Comprehensive Analysis Chart
View Comprehensive Chart
Conjunction Data List
Event ID Objects TCA Miss Dist (km) Collision Risk Probability Collision Risk Index (CRI) Action
CDM_260913-013905-261706-561321
2026-09-13T
01:39:12+0000
2.218 km
极远距离
2.2191E-6 低风险 0.42
Miss Distance Evolution Trend with All Objects
Collision Probability Evolution Trend with All Objects